Regional Weather Roundup
Issued by NWS State College, PA

Home | Current Version | Previous Version | Graphics & Text | Print | Product List | Glossary Off
Versions: 1 2 3 4 5 6 7 8 9 10 11 12 13 14 15 16 17 18 19 20 21 22 23 24 25 26 27 28 29 30 31 32 33 34 35 36 37 38 39 40 41 42 43 44 45 46 47 48 49 50

000
ASUS41 KCTP 200710
RWRCTP

REGIONAL WEATHER ROUNDUP
NATIONAL WEATHER SERVICE STATE COLLEGE PA
300 AM EDT SAT SEP 20 2014

Note: "fair" indicates few or no clouds below 12,000 feet with no
significant weather and/or obstructions to visibility.

* = STATION THAT DOES NOT REPORT PRECIPITATION /E.G. RAIN...SNOW...ETC/
    THUNDER OR FOG.

PAZ002>004-007>009-013>016-020>023-029>032-200800-
WESTERN PENNSYLVANIA

CITY           SKY/WX    TMP DP  RH WIND       PRES   REMARKS
ERIE           CLEAR     62  54  74 S16G22    30.07F
MEADVILLE      CLEAR     60  53  77 S8        30.12F
FRANKLIN*      CLOUDY    57  52  82 S14       30.15F
NEW CASTLE     NOT AVBL
BEAVER COUNTY  NOT AVBL
BUTLER*        PTCLDY    57  52  82 SE5       30.17F
PITTSBURGH INT PTCLDY    59  54  83 SE5       30.14F
PITTSBURGH     PTCLDY    59  52  77 S8        30.15S
INDIANA*       PTCLDY    61  55  82 S9        30.22S
LATROBE        PTCLDY    64  55  72 S8        30.17F
WASHINGTON CO* CLEAR     55  52  88 CALM      30.16S
$$

PAZ004>006-010>012-017>019-024>028-033>037-041-042-045-046-049>053-200800-
CENTRAL PENNSYLVANIA

CITY           SKY/WX    TMP DP  RH WIND       PRES   REMARKS
BRADFORD       MOCLDY    57  53  86 VRB7      30.17F
DUBOIS         MOCLDY    57  54  89 VRB7      30.18F
CLEARFIELD     CLOUDY    56  53  90 CALM      30.22S
JOHNSTOWN      PTCLDY    57  53  86 S12       30.22F
ALTOONA        CLOUDY    61  57  87 S8        30.24F
STATE COLLEGE  CLOUDY    61  55  81 S7        30.23F
WILLIAMSPORT   CLOUDY    61  53  75 S21G31    30.23F
SELINSGROVE    CLOUDY    61  55  81 S9        30.27F
FT INDIANTOWN  CLOUDY    57  57  99 VRB2      30.30S
CAPITAL CITY   CLOUDY    60  55  83 E6        30.28F
HARRISBURG     CLOUDY    60  55  83 SE6       30.28F
YORK           CLOUDY    60  57  89 SE6       30.28F
$$

PAZ038>040-043-044-047-048-054-055-060>062-067>071-200800-
EASTERN PENNSYLVANIA

CITY           SKY/WX    TMP DP  RH WIND       PRES   REMARKS
SCRANTON       CLOUDY    57  51  80 SW3       30.29S
MOUNT POCONO   CLOUDY    52  50  93 S8        30.32S FOG
ALLENTOWN      CLOUDY    57  52  83 CALM      30.31F
QUAKERTOWN*    CLOUDY    54  52  94 CALM      30.31F
READING        CLOUDY    58  53  84 SE6       30.29F
LANCASTER      CLOUDY    56  53  90 E5        30.29S FOG
COATESVILLE    PTSUNNY   55  55 100 CALM      30.30F FOG
POTTSTOWN      CLOUDY    54  52  93 CALM      30.31F
BLUE BELL      PTCLDY    54  52  94 CALM      30.29F
DOYLESTOWN     CLOUDY    55  53  93 CALM      30.30F
WILLOW GROVE   NOT AVBL
NORTH PHILA    CLEAR     55  50  83 N3        30.31F
PHILADELPHIA   PTCLDY    57  53  86 E3        30.30F
$$



USA.gov is the U.S. government's official web portal to all federal, state and local government web resources and services.